When you browse on this site, cookies collect data to enhance your experience and personalize the content and advertising you see.
Visit our Privacy Policy to learn more. By continuing to use the site, you agree to this use of cookies and data.
  • In Hungary
  • List of Countries
  • For 7 days
  • Water Temperature
  • Satellite Maps
  • Weather Map
  • News
  • Weather Widgets
  • user-avatar
    Login

    Hourly Weather Cajamarca

    Today, 19 June, Wednesday

    Time Temperature Precipitation Wind Pressure Humidity
    00:00 +10°C° 0 mm 2 mps 543 mmHg 83%
    01:00 +9°C° 0 mm 2 mps 543 mmHg 84%
    02:00 +9°C° 0 mm 2 mps 543 mmHg 83%
    03:00 +9°C° 0 mm 3 mps 542 mmHg 83%
    04:00 +8°C° 0 mm 3 mps 542 mmHg 83%
    05:00 +8°C° 0 mm 3 mps 542 mmHg 82%
    06:00 +9°C° 0 mm 3 mps 542 mmHg 81%
    07:00 +9°C° 0 mm 3 mps 543 mmHg 79%
    08:00 +11°C° 0 mm 3 mps 544 mmHg 69%
    09:00 +14°C° 0 mm 3 mps 546 mmHg 58%
    10:00 +17°C° 0 mm 3 mps 547 mmHg 47%
    11:00 +18°C° 0 mm 3 mps 547 mmHg 46%
    12:00 +19°C° 0 mm 4 mps 547 mmHg 44%
    13:00 +20°C° 0 mm 4 mps 547 mmHg 43%
    14:00 +19°C° 0 mm 3 mps 547 mmHg 45%
    15:00 +19°C° 0 mm 3 mps 546 mmHg 46%
    16:00 +19°C° 0 mm 3 mps 545 mmHg 48%
    17:00 +16°C° 0 mm 2 mps 544 mmHg 58%
    18:00 +14°C° 0 mm 2 mps 543 mmHg 68%
    19:00 +10°C° 0 mm 2 mps 542 mmHg 77%
    20:00 +10°C° 0 mm 2 mps 542 mmHg 78%
    21:00 +9°C° 0 mm 2 mps 543 mmHg 79%
    22:00 +9°C° 0 mm 2 mps 543 mmHg 79%
    23:00 +9°C° 0 mm 2 mps 543 mmHg 81%

    Tomorrow, 20 June, Thursday

    Time Temperature Precipitation Wind Pressure Humidity
    00:00 +8°C° 0 mm 2 mps 542 mmHg 82%
    01:00 +8°C° 0 mm 3 mps 542 mmHg 83%
    02:00 +8°C° 0 mm 3 mps 542 mmHg 83%
    03:00 +7°C° 0 mm 3 mps 542 mmHg 83%
    04:00 +7°C° 0 mm 3 mps 541 mmHg 82%
    05:00 +7°C° 0 mm 3 mps 542 mmHg 82%
    06:00 +8°C° 0 mm 3 mps 542 mmHg 82%
    07:00 +8°C° 0 mm 3 mps 543 mmHg 82%
    08:00 +10°C° 0 mm 3 mps 544 mmHg 73%
    09:00 +13°C° 0 mm 3 mps 546 mmHg 64%
    10:00 +15°C° 0 mm 4 mps 547 mmHg 56%
    11:00 +17°C° 0 mm 4 mps 547 mmHg 52%
    12:00 +18°C° 0 mm 4 mps 547 mmHg 49%
    13:00 +19°C° 0 mm 4 mps 547 mmHg 45%
    14:00 +19°C° 0 mm 4 mps 546 mmHg 45%
    15:00 +19°C° 0 mm 4 mps 546 mmHg 45%
    16:00 +19°C° 0 mm 4 mps 546 mmHg 45%
    17:00 +15°C° 0 mm 4 mps 545 mmHg 55%
    18:00 +13°C° 0 mm 3 mps 544 mmHg 65%
    19:00 +10°C° 0 mm 2 mps 543 mmHg 75%
    20:00 +9°C° 0 mm 3 mps 543 mmHg 77%
    21:00 +9°C° 0 mm 3 mps 543 mmHg 79%
    22:00 +8°C° 0 mm 3 mps 543 mmHg 81%
    23:00 +8°C° 0 mm 3 mps 543 mmHg 81%

    Day after tomorrow, 21 June, Friday

    Time Temperature Precipitation Wind Pressure Humidity
    00:00 +8°C° 0 mm 3 mps 542 mmHg 82%
    01:00 +7°C° 0 mm 3 mps 542 mmHg 82%
    02:00 +7°C° 0 mm 3 mps 542 mmHg 82%
    03:00 +7°C° 0 mm 3 mps 541 mmHg 82%
    04:00 +5°C° 0 mm 3 mps 541 mmHg 81%
    05:00 +7°C° 0 mm 3 mps 541 mmHg 81%
    06:00 +7°C° 0 mm 3 mps 542 mmHg 80%
    07:00 +7°C° 0 mm 3 mps 542 mmHg 79%
    08:00 +10°C° 0 mm 4 mps 544 mmHg 69%
    09:00 +12°C° 0 mm 4 mps 545 mmHg 59%
    10:00 +15°C° 0 mm 4 mps 547 mmHg 48%
    11:00 +17°C° 0 mm 4 mps 547 mmHg 46%
    12:00 +18°C° 0 mm 4 mps 547 mmHg 44%
    13:00 +19°C° 0 mm 4 mps 547 mmHg 42%
    14:00 +19°C° 0 mm 4 mps 547 mmHg 43%
    15:00 +19°C° 0 mm 4 mps 546 mmHg 44%
    16:00 +19°C° 0 mm 4 mps 546 mmHg 46%
    17:00 +16°C° 0 mm 3 mps 545 mmHg 55%
    18:00 +13°C° 0 mm 3 mps 544 mmHg 64%
    19:00 +10°C° 0 mm 2 mps 543 mmHg 73%
    20:00 +10°C° 0 mm 2 mps 543 mmHg 74%
    21:00 +9°C° 0 mm 3 mps 543 mmHg 76%
    22:00 +9°C° 0 mm 3 mps 543 mmHg 78%
    23:00 +8°C° 0 mm 3 mps 543 mmHg 78%

    22 June, Saturday

    Time Temperature Precipitation Wind Pressure Humidity
    00:00 +8°C° 0 mm 3 mps 543 mmHg 79%
    01:00 +7°C° 0 mm 3 mps 542 mmHg 80%
    02:00 +7°C° 0 mm 3 mps 542 mmHg 80%
    03:00 +7°C° 0 mm 3 mps 542 mmHg 79%
    04:00 +7°C° 0 mm 3 mps 541 mmHg 79%
    05:00 +7°C° 0 mm 3 mps 542 mmHg 78%
    06:00 +7°C° 0 mm 3 mps 542 mmHg 77%
    07:00 +7°C° 0 mm 3 mps 543 mmHg 77%
    08:00 +10°C° 0 mm 4 mps 544 mmHg 67%
    09:00 +12°C° 0 mm 4 mps 546 mmHg 57%
    10:00 +15°C° 0 mm 4 mps 547 mmHg 47%
    11:00 +17°C° 0 mm 4 mps 547 mmHg 45%
    12:00 +18°C° 0 mm 4 mps 547 mmHg 44%
    13:00 +19°C° 0 mm 4 mps 548 mmHg 42%
    14:00 +19°C° 0 mm 4 mps 547 mmHg 44%
    15:00 +19°C° 0 mm 4 mps 546 mmHg 45%
    16:00 +19°C° 0 mm 3 mps 546 mmHg 47%
    17:00 +16°C° 0 mm 3 mps 545 mmHg 57%
    18:00 +14°C° 0 mm 2 mps 544 mmHg 67%
    19:00 +10°C° 0 mm 2 mps 543 mmHg 77%
    20:00 +10°C° 0 mm 2 mps 543 mmHg 78%
    21:00 +9°C° 0 mm 2 mps 543 mmHg 79%
    22:00 +9°C° 0 mm 2 mps 543 mmHg 80%
    23:00 +9°C° 0 mm 2 mps 543 mmHg 81%

    23 June, Sunday

    Time Temperature Precipitation Wind Pressure Humidity
    00:00 +8°C° 0 mm 3 mps 543 mmHg 83%
    01:00 +8°C° 0 mm 3 mps 542 mmHg 84%
    02:00 +8°C° 0 mm 3 mps 542 mmHg 84%
    03:00 +8°C° 0 mm 3 mps 542 mmHg 83%
    04:00 +8°C° 0 mm 3 mps 542 mmHg 83%
    05:00 +8°C° 0 mm 3 mps 542 mmHg 82%
    06:00 +8°C° 0 mm 3 mps 542 mmHg 81%
    07:00 +8°C° 0 mm 3 mps 543 mmHg 80%
    08:00 +11°C° 0 mm 3 mps 544 mmHg 70%
    09:00 +13°C° 0 mm 3 mps 546 mmHg 60%
    10:00 +17°C° 0 mm 3 mps 548 mmHg 50%
    11:00 +18°C° 0 mm 3 mps 548 mmHg 49%
    12:00 +19°C° 0 mm 3 mps 548 mmHg 48%
    13:00 +20°C° 0 mm 3 mps 548 mmHg 46%
    14:00 +19°C° 0 mm 3 mps 547 mmHg 50%
    15:00 +18°C° 0 mm 3 mps 546 mmHg 53%
    16:00 +18°C° 0 mm 3 mps 545 mmHg 57%
    17:00 +16°C° 0 mm 2 mps 544 mmHg 65%
    18:00 +13°C° 0 mm 2 mps 543 mmHg 74%
    19:00 +10°C° 0 mm 2 mps 542 mmHg 82%
    20:00 +10°C° 0 mm 2 mps 542 mmHg 83%
    21:00 +10°C° 0 mm 2 mps 542 mmHg 83%
    22:00 +9°C° 0 mm 2 mps 542 mmHg 84%
    23:00 +9°C° 0 mm 2 mps 542 mmHg 84%

    24 June, Monday

    Time Temperature Precipitation Wind Pressure Humidity
    00:00 +9°C° 0 mm 3 mps 542 mmHg 84%
    01:00 +8°C° 0 mm 3 mps 542 mmHg 83%
    02:00 +8°C° 0 mm 3 mps 542 mmHg 83%
    03:00 +8°C° 0 mm 3 mps 541 mmHg 82%
    04:00 +8°C° 0 mm 3 mps 541 mmHg 82%
    05:00 +8°C° 0 mm 3 mps 541 mmHg 81%
    06:00 +8°C° 0 mm 3 mps 542 mmHg 80%
    07:00 +9°C° 0 mm 3 mps 542 mmHg 79%
    08:00 +11°C° 0 mm 3 mps 544 mmHg 70%
    09:00 +14°C° 0 mm 3 mps 546 mmHg 61%
    10:00 +18°C° 0 mm 3 mps 547 mmHg 52%
    11:00 +19°C° 0 mm 3 mps 547 mmHg 50%
    12:00 +20°C° 0 mm 3 mps 547 mmHg 48%
    13:00 +20°C° 0 mm 3 mps 547 mmHg 45%
    14:00 +20°C° 0 mm 3 mps 546 mmHg 48%
    15:00 +19°C° 0 mm 2 mps 546 mmHg 50%
    16:00 +19°C° 0 mm 2 mps 545 mmHg 53%
    17:00 +17°C° 0 mm 2 mps 544 mmHg 63%
    18:00 +14°C° 0 mm 1 mps 543 mmHg 74%
    19:00 +12°C° 0 mm 1 mps 542 mmHg 85%
    20:00 +11°C° 0 mm 1 mps 542 mmHg 85%
    21:00 +11°C° 0 mm 1 mps 542 mmHg 86%
    22:00 +10°C° 0 mm 1 mps 542 mmHg 86%
    23:00 +10°C° 0 mm 1 mps 542 mmHg 86%
    Show more